SES-20

Last updated on Wed Dec 17 2025 00:02:53 GMT+0000 (Coordinated Universal Time)

1 53960U 22123A 25349.53736735 -.00000079 00000+0 00000+0 0 9990 2 53960 0.0284 73.2560 0001129 19.4015 82.1336 1.00269769 11695
UTC large
Height (km)
Speed (km/s)
/
Latitude / Longitude
Inclination (degrees)
Orbital Period (minutes)
Azimuth
Elevation
Range (km)
Doppler Factor

Next 0 passes for location: London (51.5072 / 0.1276)

Sorry there are no passes over London.